NAS Fort Worth JRB, TX

4:28 AM CST on December 09, 2016 (GMT -0600)
Fort Worth Naval Air Station Jrb

Weather History for KNFW - January, 2014

Change the Weather History Date:

Wednesday, January 8, 2014

  Actual Average Record
Temperature  
Mean Temperature 47 °F -  
Max Temperature 52 °F 55 °F 61 °F (2016)
Min Temperature 42 °F 36 °F 23 °F (2015)
Degree Days  
Heating Degree Days 18    
Moisture  
Dew Point 36 °F    
Average Humidity 71    
Maximum Humidity 83    
Minimum Humidity 27    
Precipitation  
Precipitation 0.00 in - - ()
Sea Level Pressure  
Sea Level Pressure 30.17 in    
Wind  
Wind Speed 12 mph (SSE)    
Max Wind Speed 20 mph    
Max Gust Speed 22 mph    
Visibility 6 miles    
Events      
Averages and records for this station are not official NWS values.
T = Trace of Precipitation, MM = Missing Value Source: NWS Daily Summary

Daily Weather History Graph

Daily Weather History Graph

Search for Another Location

Airport or City:

Trip Planner

Search our weather history database for the weather conditions in past years. The results will help you decide how hot, cold, wet, or windy it might be!

Date:

Astronomy

Jan. 08, 2014 Rise Set
Actual Time 7:32 AM CST 5:40 PM CST
Civil Twilight 7:05 AM CST 6:07 PM CST
Nautical Twilight 6:35 AM CST 6:37 PM CST
Astronomical Twilight 6:05 AM CST 7:07 PM CST
Moon 12:23 PM CST (1/8) 12:51 AM CST (1/8)
Length of Visible Light 11h 01m
Length of Day
10h 07m
First Quarter, 56% of the Moon is Illuminated
Jan 8
First Quarter
Jan 15
Full
Jan 23
Last Quarter
Jan 30
New
Feb 6
First Quarter

Hourly Weather History & Observations

Time (CST) Temp. Windchill Dew Point Humidity Pressure Visibility Wind Dir Wind Speed Gust Speed Precip Events Conditions
12:52 AM 43.0 °F 35.7 °F 10.9 °F 27% 30.23 in 10.0 mi South 15.0 mph - N/A   Overcast
1:52 AM 43.0 °F 35.7 °F 14.0 °F 31% 30.22 in 10.0 mi South 15.0 mph - N/A   Overcast
2:52 AM 43.0 °F 35.7 °F 18.0 °F 37% 30.20 in 10.0 mi South 15.0 mph - N/A   Overcast
3:31 AM 42.8 °F 35.1 °F 19.4 °F 39% 30.27 in 10.0 mi South 16.1 mph 21.9 mph N/A   Overcast
3:52 AM 43.0 °F 36.0 °F 21.9 °F 43% 30.21 in 10.0 mi South 13.8 mph 21.9 mph N/A   Overcast
4:52 AM 43.0 °F 36.4 °F 25.0 °F 49% 30.19 in 10.0 mi South 12.7 mph 21.9 mph N/A   Overcast
5:52 AM 43.0 °F 36.0 °F 28.9 °F 58% 30.18 in 10.0 mi SSE 13.8 mph - N/A   Overcast
6:52 AM 42.1 °F 33.3 °F 32.0 °F 67% 30.16 in 10.0 mi SSE 19.6 mph - N/A   Overcast
7:52 AM 42.1 °F 34.9 °F 34.0 °F 73% 30.18 in 5.0 mi SSE 13.8 mph - N/A   Haze
8:25 AM 42.8 °F 36.2 °F 35.6 °F 76% 30.25 in 4.0 mi SSE 12.7 mph - N/A   Haze
8:52 AM 42.1 °F 35.7 °F 35.1 °F 76% 30.20 in 10.0 mi SSE 11.5 mph - N/A   Overcast
9:52 AM 42.1 °F 36.6 °F 36.0 °F 79% 30.21 in 3.0 mi SSE 9.2 mph - N/A   Haze
10:21 AM 42.8 °F 37.0 °F 35.6 °F 76% 30.26 in 4.0 mi SSE 10.4 mph - N/A   Haze
10:52 AM 42.1 °F 38.4 °F 37.0 °F 82% 30.20 in 4.0 mi SE 5.8 mph - N/A   Haze
11:33 AM 42.8 °F 36.6 °F 37.4 °F 81% 30.23 in 2.0 mi SSE 11.5 mph - 0.00 in   Light Drizzle
11:46 AM 44.6 °F 40.2 °F 37.4 °F 76% 30.23 in 4.0 mi SSE 8.1 mph - 0.00 in   Haze
11:52 AM 44.1 °F 38.1 °F 37.9 °F 79% 30.17 in 4.0 mi SSE 11.5 mph - 0.00 in   Haze
12:07 PM 44.6 °F 39.7 °F 37.4 °F 76% 30.21 in 4.0 mi SSE 9.2 mph - N/A   Haze
12:29 PM 44.6 °F 40.7 °F 37.4 °F 76% 30.19 in 2.0 mi SSE 6.9 mph - 0.00 in   Light Drizzle
12:52 PM 45.0 °F 40.1 °F 39.0 °F 80% 30.13 in 3.0 mi SSE 9.2 mph - 0.00 in   Light Drizzle
1:27 PM 46.4 °F 41.1 °F 39.2 °F 76% 30.15 in 2.5 mi SSE 11.5 mph - 0.00 in   Light Drizzle
1:43 PM 46.4 °F 42.4 °F 39.2 °F 76% 30.15 in 2.5 mi SE 8.1 mph - 0.00 in   Haze
1:52 PM 46.0 °F 41.9 °F 39.9 °F 79% 30.10 in 2.0 mi SE 8.1 mph - 0.00 in   Haze
2:07 PM 46.4 °F 41.5 °F 39.2 °F 76% 30.15 in 4.0 mi SSE 10.4 mph - N/A   Haze
2:52 PM 46.9 °F - 41.0 °F 80% 30.09 in 8.0 mi SE 9.2 mph - N/A   Overcast
3:52 PM 50.0 °F - 42.1 °F 74% 30.08 in 10.0 mi SSE 12.7 mph 20.7 mph N/A   Overcast
4:52 PM 50.0 °F - 43.0 °F 77% 30.09 in 10.0 mi SSE 8.1 mph - N/A   Overcast
5:52 PM 51.1 °F - 44.1 °F 77% 30.09 in 10.0 mi SE 8.1 mph - N/A   Overcast
6:52 PM 50.0 °F - 44.1 °F 80% 30.11 in 6.0 mi ESE 8.1 mph - N/A   Haze
7:52 PM 50.0 °F - 45.0 °F 83% 30.13 in 5.0 mi ESE 5.8 mph - N/A   Haze
8:52 PM 51.1 °F - 46.0 °F 83% 30.14 in 5.0 mi ESE 4.6 mph - N/A   Haze
9:52 PM 52.0 °F - 46.9 °F 83% 30.15 in 4.0 mi SE 8.1 mph - N/A   Haze
10:28 PM 51.8 °F - 46.4 °F 82% 30.19 in 2.5 mi SE 6.9 mph - N/A   Haze
10:52 PM 52.0 °F - 46.9 °F 83% 30.14 in 1.8 mi ESE 8.1 mph - N/A   Haze
11:10 PM 51.8 °F - 46.4 °F 82% 30.18 in 2.0 mi ESE 5.8 mph - N/A   Haze
11:52 PM 52.0 °F - 46.9 °F 83% 30.13 in 2.5 mi SE 6.9 mph - N/A   Haze